TITAN 3C TRANSTAGE R/B, 2222

Orbit data source: Space-Track

TITAN 3C TRANSTAGE R/B, 2222 is space debris in GEO originally from a launch on Thu, 16 Jun 1966 UTC launched from the Air Force Eastern Test Range (AFETR). Debris objects in space refer to the collection of defunct objects orbiting the Earth. Examples of debris include non-operational satellites, rocket bodies, and fragments generated from explosions, collisions, or faulty payload assembly.

Loading next visibility...
Identifier
2222, 1966-053J
Orbit
GEO
Country
Flag of USUS
Related business
Manufacturer
Martin Marietta
Mission
Spacecraft
Bus & Motor
TRANSTAGE, Unknown motor
Mass
2,050 kg wet, 2,050 kg dry
Launch date (UTC)
1966-06-16 (59 years ago)
Launch vehicle
Unknown
Launch site
Air Force Eastern Test Range (AFETR)
Object type
Payload
Rocket body
Debris
Shape & HBR
Unknown
Radar Cross Section
Large (>1 m²)

Expand to show TLE details & history
Last TLE update: 8 hours ago

TLE from 8 hours ago
0 TITAN 3C TRANSTAGE R/B
1 02222U 66053J   25288.89373819 -.00000211  00000-0  00000-0 0  9996
2 02222   7.9268  50.2122 0164565 163.8131  30.9716  1.06722366127777
Epoch: 2025-10-15T21:26Z
TLE epoch observation values (Epoch: 2025-10-15T21:26:58.979Z)
Latitude
-2.14551°
Longitude
-100.57022°
Altitude
33,500.622 km
Speed
3.184 km/s
True Right ascension
16h 23m 20s
True Declination
-2° 08' 36"
Sunlit
Object was in daylight at epoch
Visualization orbit readout
Latitude
Unknown
Longitude
Unknown
Altitude
Unknown
Speed
Unknown
Apparent Right ascension
Unknown
Apparent Declination
Unknown
Sunlit
N/A
Visualization observer readout
Local Sidereal Time
00:00:31
Azimuth
Unknown
Elevation
Unknown
Doppler factor
Unknown
Orbital elements
Apogee altitude
34,736.706 km
Perigee altitude
33,405.402 km
Semi-major axis
40,449.191 km
Eccentricity
0.01646
Inclination
7.9268°
RAAN
50.2122°
Arg. of periapsis
163.8131°
True anomaly
31.95941°
Mean anomaly
30.9716°
Eccentric anomaly
31.46375°
Mean motion
0.2668 °/min
Orbital period
1,349.35 mins
BSTAR
0
Loading maneuver chart data...
Computing Atmospheric mass density...
Loading historical data...
Loading historical data...
Loading historical data...
Loading historical data...
Loading historical data...
Loading historical data...
Loading historical data...

Documentation

Showing up to 5 results
|